| time (UTC) | temp F | wind direction | speed MPH | gust MPH | rain 1hr in | rain 24hr in | rain mn in | humidity % | barometer mb |
| 20260903152106 | 63 | 90 | 0.0 | 0.0 | 0.00 | 0.00 | 0.08 | 80 | 1007.5 |
| 20260903151805 | 63 | 135 | 0.0 | 0.0 | 0.00 | 0.00 | 0.08 | 80 | 1007.5 |
| 20260903151505 | 63 | 135 | 0.0 | 0.0 | 0.00 | 0.00 | 0.08 | 80 | 1007.7 |
| 20260903151206 | 63 | 157 | 0.0 | 0.0 | 0.00 | 0.00 | 0.08 | 80 | 1007.5 |
| 20260903150606 | 63 | 180 | 0.0 | 0.0 | 0.00 | 0.00 | 0.08 | 79 | 1007.5 |
| 20260903150305 | 63 | 90 | 0.0 | 0.0 | 0.00 | 0.00 | 0.08 | 79 | 1007.5 |
| 20260903150005 | 63 | 90 | 0.0 | 0.0 | 0.00 | 0.00 | 0.08 | 79 | 1007.7 |
| 20260903145706 | 63 | 90 | 0.0 | 0.0 | 0.00 | 0.00 | 0.08 | 78 | 1007.5 |
| 20260903145405 | 63 | 90 | 0.0 | 0.0 | 0.00 | 0.00 | 0.08 | 79 | 1007.5 |
| 20260903144805 | 63 | 112 | 0.0 | 0.0 | 0.00 | 0.00 | 0.08 | 78 | 1007.7 |
| 20260903144506 | 63 | 112 | 0.0 | 0.0 | 0.00 | 0.00 | 0.08 | 78 | 1007.7 |
| 20260903144206 | 63 | 90 | 0.0 | 0.0 | 0.00 | 0.00 | 0.08 | 79 | 1007.7 |
| 20260903143905 | 63 | 90 | 0.0 | 0.0 | 0.00 | 0.00 | 0.08 | 78 | 1007.7 |
| 20260903143306 | 63 | 315 | 0.0 | 0.0 | 0.00 | 0.00 | 0.08 | 77 | 1007.7 |
| 20260903143006 | 63 | 337 | 0.0 | 0.0 | 0.00 | 0.00 | 0.06 | 77 | 1008.0 |
| 20260903142705 | 63 | 270 | 0.0 | 0.0 | 0.00 | 0.00 | 0.06 | 78 | 1008.0 |
| 20260903142405 | 63 | 270 | 0.0 | 0.0 | 0.00 | 0.00 | 0.06 | 77 | 1008.0 |
| 20260903142105 | 63 | 315 | 1.0 | 1.0 | 0.00 | 0.00 | 0.06 | 77 | 1008.0 |
| 20260903141808 | 63 | 315 | 2.0 | 2.0 | 0.00 | 0.00 | 0.06 | 77 | 1008.2 |
| 20260903141507 | 63 | 0 | 1.0 | 1.0 | 0.00 | 0.00 | 0.06 | 77 | 1008.0 |
| 20260903141206 | 64 | 337 | 2.0 | 2.0 | 0.00 | 0.00 | 0.06 | 78 | 1008.0 |
| 20260903140906 | 64 | 247 | 0.0 | 0.0 | 0.00 | 0.00 | 0.06 | 78 | 1007.7 |
| 20260903140607 | 64 | 225 | 0.0 | 0.0 | 0.00 | 0.00 | 0.06 | 78 | 1007.7 |
| 20260903140305 | 64 | 225 | 2.0 | 2.0 | 0.00 | 0.00 | 0.06 | 78 | 1008.0 |
| 20260903140009 | 64 | 225 | 2.0 | 2.0 | 0.00 | 0.00 | 0.06 | 78 | 1008.0 |
| 20260903135705 | 64 | 180 | 3.0 | 3.0 | 0.00 | 0.00 | 0.06 | 78 | 1007.7 |
| 20260903135406 | 64 | 225 | 2.0 | 2.0 | 0.00 | 0.00 | 0.06 | 78 | 1007.7 |
| 20260903135105 | 63 | 247 | 1.0 | 1.0 | 0.00 | 0.00 | 0.06 | 76 | 1007.7 |
| 20260903134806 | 63 | 247 | 0.0 | 0.0 | 0.00 | 0.00 | 0.04 | 76 | 1008.0 |
| 20260903134505 | 63 | 337 | 1.0 | 2.0 | 0.00 | 0.00 | 0.04 | 76 | 1008.2 |
| 20260903133906 | 63 | 270 | 4.0 | 4.0 | 0.00 | 0.00 | 0.04 | 75 | 1008.0 |
| 20260903133607 | 63 | 202 | 3.0 | 3.0 | 0.00 | 0.00 | 0.04 | 75 | 1008.0 |
| 20260903133305 | 63 | 180 | 3.0 | 3.0 | 0.00 | 0.00 | 0.04 | 74 | 1008.0 |
| 20260903133006 | 63 | 270 | 5.0 | 5.0 | 0.00 | 0.00 | 0.02 | 75 | 1008.2 |
| 20260903132706 | 63 | 292 | 4.0 | 4.0 | 0.00 | 0.00 | 0.02 | 74 | 1008.0 |
| 20260903132406 | 64 | 315 | 0.0 | 0.0 | 0.00 | 0.00 | 0.02 | 73 | 1008.0 |
| 20260903132106 | 63 | 270 | 1.0 | 2.0 | 0.00 | 0.00 | 0.02 | 73 | 1007.7 |
| 20260903131809 | 64 | 270 | 1.0 | 1.0 | 0.00 | 0.00 | 0.02 | 73 | 1007.7 |
| 20260903131506 | 64 | 270 | 1.0 | 1.0 | 0.00 | 0.00 | 0.02 | 73 | 1007.5 |
| 20260903131206 | 64 | 225 | 1.0 | 1.0 | 0.00 | 0.00 | 0.02 | 73 | 1007.5 |
| 20260903130905 | 64 | 337 | 1.0 | 2.0 | 0.00 | 0.00 | 0.00 | 72 | 1007.7 |
| 20260903130605 | 64 | 315 | 3.0 | 3.0 | 0.00 | 0.00 | 0.00 | 72 | 1007.7 |
| 20260903130306 | 64 | 225 | 4.0 | 4.0 | 0.00 | 0.00 | 0.00 | 71 | 1007.7 |
| 20260903125706 | 65 | 247 | 2.0 | 2.0 | 0.00 | 0.00 | 0.00 | 70 | 1007.7 |
| 20260903125406 | 65 | 270 | 1.0 | 1.0 | 0.00 | 0.00 | 0.00 | 69 | 1007.7 |
| 20260903125106 | 65 | 292 | 2.0 | 2.0 | 0.00 | 0.00 | 0.00 | 69 | 1007.7 |
| 20260903124805 | 65 | 315 | 1.0 | 1.0 | 0.00 | 0.00 | 0.00 | 69 | 1007.7 |
| 20260903124206 | 65 | 292 | 5.0 | 5.0 | 0.00 | 0.00 | 0.00 | 68 | 1007.7 |
| 20260903123906 | 65 | 225 | 2.0 | 2.0 | 0.00 | 0.00 | 0.00 | 69 | 1007.7 |
| 20260903123606 | 65 | 225 | 4.0 | 4.0 | 0.00 | 0.00 | 0.00 | 68 | 1007.7 |
| 20260903123305 | 65 | 225 | 3.0 | 3.0 | 0.00 | 0.00 | 0.00 | 68 | 1007.7 |
| 20260903123005 | 65 | 225 | 5.0 | 5.0 | 0.00 | 0.00 | 0.00 | 69 | 1008.0 |
| 20260903122405 | 65 | 247 | 5.0 | 5.0 | 0.00 | 0.00 | 0.00 | 68 | 1008.0 |
| 20260903122106 | 65 | 270 | 2.0 | 2.0 | 0.00 | 0.00 | 0.00 | 68 | 1008.0 |
| 20260903121807 | 65 | 270 | 2.0 | 2.0 | 0.00 | 0.00 | 0.00 | 67 | 1007.7 |
| 20260903121506 | 65 | 337 | 6.0 | 6.0 | 0.00 | 0.00 | 0.00 | 66 | 1008.0 |
| 20260903121206 | 65 | 225 | 7.0 | 7.0 | 0.00 | 0.00 | 0.00 | 65 | 1007.7 |
| 20260903120606 | 66 | 247 | 4.0 | 4.0 | 0.00 | 0.00 | 0.00 | 62 | 1007.5 |
| 20260903120306 | 67 | 337 | 6.0 | 7.0 | 0.00 | 0.00 | 0.00 | 62 | 1007.5 |
| 20260903120005 | 67 | 202 | 4.0 | 4.0 | 0.00 | 0.00 | 0.00 | 61 | 1007.7 |
| 20260903115706 | 67 | 270 | 6.0 | 6.0 | 0.00 | 0.00 | 0.00 | 61 | 1007.7 |
| 20260903115406 | 68 | 337 | 9.0 | 9.0 | 0.00 | 0.00 | 0.00 | 61 | 1007.7 |
| 20260903115108 | 67 | 337 | 4.0 | 4.0 | 0.00 | 0.00 | 0.00 | 61 | 1007.7 |
| 20260903114806 | 67 | 270 | 4.0 | 4.0 | 0.00 | 0.00 | 0.00 | 61 | 1008.0 |
| 20260903114505 | 68 | 225 | 5.0 | 5.0 | 0.00 | 0.00 | 0.00 | 61 | 1007.7 |
| 20260903114205 | 68 | 225 | 7.0 | 7.0 | 0.00 | 0.00 | 0.00 | 59 | 1007.7 |
| 20260903113906 | 68 | 337 | 2.0 | 2.0 | 0.00 | 0.00 | 0.00 | 59 | 1007.5 |
| 20260903113305 | 68 | 270 | 6.0 | 6.0 | 0.00 | 0.00 | 0.00 | 58 | 1007.5 |
| 20260903113005 | 68 | 337 | 11.0 | 11.0 | 0.00 | 0.00 | 0.00 | 59 | 1007.7 |
| 20260903112707 | 69 | 225 | 8.0 | 8.0 | 0.00 | 0.00 | 0.00 | 58 | 1007.7 |
| 20260903112406 | 69 | 337 | 2.0 | 2.0 | 0.00 | 0.00 | 0.00 | 59 | 1007.7 |
| 20260903112106 | 69 | 225 | 8.0 | 8.0 | 0.00 | 0.00 | 0.00 | 60 | 1007.7 |
| 20260903111809 | 69 | 225 | 4.0 | 5.0 | 0.00 | 0.00 | 0.00 | 59 | 1008.0 |
| 20260903111506 | 70 | 270 | 3.0 | 3.0 | 0.00 | 0.00 | 0.00 | 61 | 1007.7 |
| 20260903111206 | 69 | 225 | 6.0 | 6.0 | 0.00 | 0.00 | 0.00 | 62 | 1007.7 |
| 20260903110906 | 69 | 225 | 8.0 | 8.0 | 0.00 | 0.00 | 0.00 | 60 | 1008.0 |
| 20260903110605 | 69 | 225 | 2.0 | 2.0 | 0.00 | 0.00 | 0.00 | 61 | 1007.7 |
| 20260903110006 | 69 | 247 | 5.0 | 5.0 | 0.00 | 0.00 | 0.00 | 60 | 1008.0 |
| 20260903105706 | 70 | 225 | 6.0 | 6.0 | 0.00 | 0.00 | 0.00 | 62 | 1007.7 |
| 20260903105405 | 70 | 202 | 3.0 | 3.0 | 0.00 | 0.00 | 0.00 | 63 | 1008.0 |
| 20260903105105 | 69 | 247 | 7.0 | 7.0 | 0.00 | 0.00 | 0.00 | 63 | 1008.0 |
| 20260903104806 | 69 | 225 | 11.0 | 11.0 | 0.00 | 0.00 | 0.00 | 62 | 1008.0 |
| 20260903104506 | 70 | 225 | 5.0 | 5.0 | 0.00 | 0.00 | 0.00 | 61 | 1008.2 |
| 20260903104206 | 69 | 337 | 8.0 | 8.0 | 0.00 | 0.00 | 0.00 | 61 | 1008.2 |
| 20260903103905 | 69 | 337 | 7.0 | 7.0 | 0.00 | 0.00 | 0.00 | 62 | 1008.2 |
| 20260903103306 | 69 | 180 | 8.0 | 8.0 | 0.00 | 0.00 | 0.00 | 62 | 1008.0 |
| 20260903103005 | 69 | 270 | 3.0 | 3.0 | 0.00 | 0.00 | 0.00 | 62 | 1008.2 |
| 20260903102705 | 69 | 337 | 8.0 | 8.0 | 0.00 | 0.00 | 0.00 | 63 | 1008.2 |
| 20260903102406 | 69 | 315 | 3.0 | 3.0 | 0.00 | 0.00 | 0.00 | 63 | 1008.2 |
| 20260903102108 | 68 | 247 | 4.0 | 4.0 | 0.00 | 0.00 | 0.00 | 63 | 1008.2 |
| 20260903101805 | 69 | 202 | 2.0 | 2.0 | 0.00 | 0.00 | 0.00 | 63 | 1008.2 |
| 20260903101506 | 69 | 270 | 4.0 | 4.0 | 0.00 | 0.00 | 0.00 | 63 | 1008.0 |
| 20260903101206 | 69 | 337 | 3.0 | 3.0 | 0.00 | 0.00 | 0.00 | 64 | 1008.2 |
| 20260903100906 | 69 | 225 | 4.0 | 4.0 | 0.00 | 0.00 | 0.00 | 63 | 1008.2 |
| 20260903100306 | 69 | 225 | 5.0 | 5.0 | 0.00 | 0.00 | 0.00 | 66 | 1008.5 |
| 20260903100005 | 68 | 180 | 3.0 | 3.0 | 0.00 | 0.00 | 0.00 | 66 | 1008.5 |
| 20260903095706 | 68 | 225 | 4.0 | 4.0 | 0.00 | 0.00 | 0.00 | 67 | 1008.5 |
| 20260903095406 | 68 | 337 | 2.0 | 2.0 | 0.00 | 0.00 | 0.00 | 66 | 1008.5 |
| 20260903095105 | 68 | 225 | 5.0 | 5.0 | 0.00 | 0.00 | 0.00 | 67 | 1008.5 |
| 20260903094506 | 67 | 337 | 2.0 | 2.0 | 0.00 | 0.00 | 0.00 | 68 | 1008.5 |
| 20260903094205 | 67 | 247 | 2.0 | 2.0 | 0.00 | 0.00 | 0.00 | 67 | 1008.5 |
| 20260903093906 | 67 | 180 | 0.0 | 0.0 | 0.00 | 0.00 | 0.00 | 68 | 1008.5 |
| 20260903093606 | 67 | 225 | 3.0 | 3.0 | 0.00 | 0.00 | 0.00 | 69 | 1008.7 |
| 20260903093306 | 67 | 270 | 3.0 | 3.0 | 0.00 | 0.00 | 0.00 | 69 | 1008.7 |
| 20260903093009 | 67 | 225 | 4.0 | 4.0 | 0.00 | 0.00 | 0.00 | 69 | 1008.7 |
| 20260903092705 | 67 | 337 | 3.0 | 3.0 | 0.00 | 0.00 | 0.00 | 69 | 1008.7 |
| 20260903092406 | 67 | 315 | 3.0 | 4.0 | 0.00 | 0.00 | 0.00 | 70 | 1008.7 |
| 20260903092106 | 67 | 202 | 2.0 | 2.0 | 0.00 | 0.00 | 0.00 | 72 | 1008.7 |
| 20260903091805 | 67 | 270 | 0.0 | 0.0 | 0.00 | 0.00 | 0.00 | 71 | 1008.7 |
| 20260903091506 | 65 | 247 | 2.0 | 2.0 | 0.00 | 0.00 | 0.00 | 71 | 1008.7 |
| 20260903090905 | 65 | 270 | 2.0 | 2.0 | 0.00 | 0.00 | 0.00 | 71 | 1008.7 |
| 20260903090606 | 65 | 337 | 1.0 | 1.0 | 0.00 | 0.00 | 0.00 | 71 | 1008.7 |
| 20260903090305 | 65 | 337 | 5.0 | 5.0 | 0.00 | 0.00 | 0.00 | 73 | 1008.7 |
| 20260903090006 | 65 | 315 | 3.0 | 3.0 | 0.00 | 0.00 | 0.00 | 73 | 1008.7 |
| 20260903085406 | 63 | 225 | 7.0 | 7.0 | 0.00 | 0.00 | 0.00 | 73 | 1008.7 |
| 20260903085105 | 64 | 270 | 0.0 | 0.0 | 0.00 | 0.00 | 0.00 | 75 | 1008.7 |
| 20260903084805 | 64 | 202 | 3.0 | 4.0 | 0.00 | 0.00 | 0.00 | 75 | 1008.9 |
| 20260903084506 | 64 | 337 | 1.0 | 1.0 | 0.00 | 0.00 | 0.00 | 76 | 1008.9 |
| 20260903084206 | 63 | 225 | 3.0 | 3.0 | 0.00 | 0.00 | 0.00 | 76 | 1008.9 |
| 20260903083606 | 62 | 247 | 2.0 | 2.0 | 0.00 | 0.00 | 0.00 | 76 | 1008.9 |
| 20260903083306 | 62 | 225 | 1.0 | 2.0 | 0.00 | 0.00 | 0.00 | 77 | 1009.2 |
| 20260903083006 | 62 | 225 | 3.0 | 3.0 | 0.00 | 0.00 | 0.00 | 78 | 1009.2 |
| 20260903082705 | 62 | 270 | 0.0 | 0.0 | 0.00 | 0.00 | 0.00 | 79 | 1009.2 |
| 20260903082406 | 62 | 202 | 1.0 | 1.0 | 0.00 | 0.00 | 0.00 | 79 | 1009.2 |
| 20260903082109 | 62 | 90 | 0.0 | 0.0 | 0.00 | 0.00 | 0.00 | 79 | 1009.2 |
| 20260903081806 | 61 | 337 | 0.0 | 0.0 | 0.00 | 0.00 | 0.00 | 79 | 1009.2 |
| 20260903081505 | 61 | 315 | 1.0 | 1.0 | 0.00 | 0.00 | 0.00 | 79 | 1008.9 |
| 20260903081206 | 60 | 67 | 1.0 | 1.0 | 0.00 | 0.00 | 0.00 | 79 | 1008.9 |
| 20260903080905 | 59 | 0 | 1.0 | 1.0 | 0.00 | 0.00 | 0.00 | 79 | 1008.9 |
| 20260903080306 | 59 | 315 | 0.0 | 0.0 | 0.00 | 0.00 | 0.00 | 80 | 1008.7 |
| 20260903080005 | 59 | 22 | 1.0 | 1.0 | 0.00 | 0.00 | 0.00 | 80 | 1008.7 |
| 20260903075706 | 59 | 315 | 0.0 | 0.0 | 0.00 | 0.00 | 0.00 | 80 | 1008.7 |
| 20260903075405 | 59 | 90 | 1.0 | 1.0 | 0.00 | 0.00 | 0.00 | 81 | 1008.5 |
| 20260903075106 | 59 | 90 | 0.0 | 0.0 | 0.00 | 0.00 | 0.00 | 81 | 1008.5 |
| 20260903074808 | 59 | 135 | 0.0 | 0.0 | 0.00 | 0.00 | 0.00 | 81 | 1008.5 |
| 20260903074506 | 60 | 180 | 0.0 | 0.0 | 0.00 | 0.00 | 0.00 | 81 | 1008.7 |
| 20260903074205 | 59 | 112 | 0.0 | 0.0 | 0.00 | 0.00 | 0.00 | 82 | 1008.7 |
| 20260903073905 | 59 | 67 | 0.0 | 0.0 | 0.00 | 0.00 | 0.00 | 82 | 1008.7 |
| 20260903073605 | 59 | 90 | 0.0 | 0.0 | 0.00 | 0.00 | 0.00 | 82 | 1008.5 |
| 20260903073306 | 59 | 90 | 0.0 | 0.0 | 0.00 | 0.00 | 0.00 | 82 | 1008.5 |
| 20260903072706 | 59 | 112 | 0.0 | 0.0 | 0.00 | 0.00 | 0.00 | 83 | 1008.5 |
| 20260903072405 | 59 | 67 | 0.0 | 0.0 | 0.00 | 0.00 | 0.00 | 83 | 1008.5 |
| 20260903072105 | 58 | 67 | 0.0 | 0.0 | 0.00 | 0.00 | 0.00 | 83 | 1008.5 |
| 20260903071806 | 58 | 90 | 0.0 | 0.0 | 0.00 | 0.00 | 0.00 | 83 | 1008.7 |
| 20260903071505 | 57 | 337 | 1.0 | 1.0 | 0.00 | 0.00 | 0.00 | 83 | 1008.7 |
| 20260903071206 | 57 | 112 | 0.0 | 0.0 | 0.00 | 0.00 | 0.00 | 83 | 1008.7 |
| 20260903070906 | 57 | 337 | 0.0 | 0.0 | 0.00 | 0.00 | 0.00 | 83 | 1008.7 |
| 20260903070605 | 57 | 337 | 0.0 | 0.0 | 0.00 | 0.00 | 0.00 | 83 | 1008.7 |
| 20260903070305 | 57 | 112 | 0.0 | 0.0 | 0.00 | 0.00 | 0.00 | 83 | 1008.9 |
| 20260903070007 | 56 | 90 | 0.0 | 0.0 | 0.00 | 0.00 | 0.00 | 83 | 1008.7 |
| 20260903065408 | 56 | 90 | 0.0 | 0.0 | 0.00 | 0.00 | 0.00 | 83 | 1008.9 |
| 20260903065106 | 56 | 337 | 1.0 | 1.0 | 0.00 | 0.00 | 0.00 | 83 | 1009.2 |
| 20260903064806 | 56 | 45 | 0.0 | 0.0 | 0.00 | 0.00 | 0.00 | 83 | 1009.2 |
| 20260903064506 | 56 | 45 | 0.0 | 0.0 | 0.00 | 0.00 | 0.00 | 83 | 1009.2 |
| 20260903064206 | 55 | 67 | 0.0 | 0.0 | 0.00 | 0.00 | 0.00 | 83 | 1009.2 |
| 20260903063906 | 55 | 337 | 0.0 | 0.0 | 0.00 | 0.00 | 0.00 | 84 | 1009.2 |
| 20260903063609 | 55 | 45 | 0.0 | 0.0 | 0.00 | 0.00 | 0.00 | 83 | 1009.2 |
| 20260903063305 | 54 | 67 | 0.0 | 0.0 | 0.00 | 0.00 | 0.00 | 84 | 1009.2 |
| 20260903063006 | 54 | 90 | 1.0 | 1.0 | 0.00 | 0.00 | 0.00 | 83 | 1008.9 |
| 20260903062705 | 54 | 90 | 1.0 | 1.0 | 0.00 | 0.00 | 0.00 | 84 | 1009.2 |
| 20260903062405 | 53 | 90 | 0.0 | 0.0 | 0.00 | 0.00 | 0.00 | 84 | 1008.9 |
| 20260903062105 | 53 | 67 | 0.0 | 0.0 | 0.00 | 0.00 | 0.00 | 83 | 1009.2 |
| 20260903061505 | 52 | 90 | 1.0 | 1.0 | 0.00 | 0.00 | 0.00 | 83 | 1009.2 |
| 20260903061205 | 52 | 90 | 1.0 | 1.0 | 0.00 | 0.00 | 0.00 | 83 | 1009.2 |
| 20260903060906 | 52 | 90 | 0.0 | 0.0 | 0.00 | 0.00 | 0.00 | 82 | 1009.2 |
| 20260903060606 | 52 | 90 | 0.0 | 0.0 | 0.00 | 0.00 | 0.00 | 82 | 1009.2 |
| 20260903060005 | 51 | 67 | 1.0 | 1.0 | 0.00 | 0.00 | 0.00 | 82 | 1009.2 |
| 20260903055705 | 51 | 90 | 0.0 | 0.0 | 0.00 | 0.00 | 0.00 | 82 | 1009.2 |
| 20260903055406 | 51 | 90 | 0.0 | 0.0 | 0.00 | 0.00 | 0.00 | 81 | 1009.2 |
| 20260903055106 | 51 | 90 | 0.0 | 0.0 | 0.00 | 0.00 | 0.00 | 81 | 1009.2 |
| 20260903054505 | 50 | 337 | 0.0 | 0.0 | 0.00 | 0.00 | 0.00 | 81 | 1009.2 |
| 20260903054205 | 50 | 90 | 0.0 | 0.0 | 0.00 | 0.00 | 0.00 | 80 | 1009.2 |
| 20260903053905 | 50 | 90 | 0.0 | 0.0 | 0.00 | 0.00 | 0.00 | 80 | 1009.2 |
| 20260903053606 | 50 | 90 | 0.0 | 0.0 | 0.00 | 0.00 | 0.00 | 80 | 1009.2 |
| 20260903053306 | 50 | 90 | 0.0 | 0.0 | 0.00 | 0.00 | 0.00 | 80 | 1009.2 |
| 20260903053006 | 50 | 90 | 0.0 | 0.0 | 0.00 | 0.00 | 0.00 | 81 | 1009.2 |
| 20260903052706 | 50 | 90 | 0.0 | 0.0 | 0.00 | 0.00 | 0.00 | 80 | 1009.2 |
| 20260903052405 | 50 | 90 | 0.0 | 0.0 | 0.00 | 0.00 | 0.00 | 81 | 1008.9 |
| 20260903051806 | 48 | 90 | 0.0 | 0.0 | 0.00 | 0.00 | 0.00 | 81 | 1008.9 |
| 20260903051206 | 48 | 90 | 0.0 | 0.0 | 0.00 | 0.00 | 0.00 | 82 | 1008.7 |
| 20260903050906 | 48 | 90 | 0.0 | 0.0 | 0.00 | 0.00 | 0.00 | 83 | 1008.7 |
| 20260903050606 | 47 | 90 | 0.0 | 0.0 | 0.00 | 0.00 | 0.00 | 83 | 1008.7 |
| 20260903050306 | 47 | 90 | 0.0 | 0.0 | 0.00 | 0.00 | 0.00 | 83 | 1008.5 |
| 20260903050006 | 46 | 90 | 0.0 | 0.0 | 0.00 | 0.00 | 0.00 | 82 | 1008.7 |
| 20260903045706 | 46 | 337 | 0.0 | 0.0 | 0.00 | 0.00 | 0.00 | 81 | 1008.7 |
| 20260903045406 | 46 | 90 | 0.0 | 0.0 | 0.00 | 0.00 | 0.00 | 80 | 1008.7 |
| 20260903045105 | 45 | 337 | 0.0 | 0.0 | 0.00 | 0.00 | 0.00 | 80 | 1008.5 |
| 20260903044806 | 45 | 90 | 0.0 | 0.0 | 0.00 | 0.00 | 0.00 | 80 | 1008.5 |
| 20260903044206 | 46 | 90 | 0.0 | 0.0 | 0.00 | 0.00 | 0.00 | 81 | 1008.5 |
| 20260903043906 | 46 | 90 | 0.0 | 0.0 | 0.00 | 0.00 | 0.00 | 81 | 1008.7 |
| 20260903043605 | 46 | 90 | 0.0 | 0.0 | 0.00 | 0.00 | 0.00 | 81 | 1008.5 |
| 20260903043305 | 46 | 90 | 0.0 | 0.0 | 0.00 | 0.00 | 0.00 | 80 | 1008.5 |
| 20260903043005 | 46 | 90 | 0.0 | 0.0 | 0.00 | 0.00 | 0.00 | 80 | 1008.5 |
| 20260903042405 | 46 | 90 | 0.0 | 0.0 | 0.00 | 0.00 | 0.00 | 79 | 1008.2 |
| 20260903042106 | 46 | 90 | 0.0 | 0.0 | 0.00 | 0.00 | 0.00 | 79 | 1008.5 |
| 20260903041806 | 45 | 90 | 0.0 | 0.0 | 0.00 | 0.00 | 0.00 | 79 | 1008.7 |
| 20260903041507 | 46 | 90 | 0.0 | 0.0 | 0.00 | 0.00 | 0.00 | 79 | 1008.5 |
| 20260903041206 | 46 | 90 | 0.0 | 0.0 | 0.00 | 0.00 | 0.00 | 80 | 1008.5 |
| 20260903040905 | 46 | 90 | 0.0 | 0.0 | 0.00 | 0.00 | 0.00 | 80 | 1008.7 |
| 20260903040606 | 46 | 90 | 0.0 | 0.0 | 0.00 | 0.00 | 0.00 | 79 | 1008.7 |
| 20260903040305 | 46 | 90 | 0.0 | 0.0 | 0.00 | 0.00 | 0.00 | 79 | 1008.7 |
| 20260903040008 | 47 | 337 | 0.0 | 0.0 | 0.00 | 0.00 | 0.00 | 79 | 1008.7 |
| 20260903035706 | 47 | 90 | 0.0 | 0.0 | 0.00 | 0.00 | 0.00 | 80 | 1008.5 |
| 20260903035408 | 47 | 90 | 0.0 | 0.0 | 0.00 | 0.00 | 0.00 | 79 | 1008.7 |
| 20260903035105 | 47 | 90 | 0.0 | 0.0 | 0.00 | 0.00 | 0.00 | 80 | 1008.7 |
| 20260903034806 | 47 | 90 | 0.0 | 0.0 | 0.00 | 0.00 | 0.00 | 80 | 1008.7 |
| 20260903034505 | 48 | 90 | 0.0 | 0.0 | 0.00 | 0.00 | 0.00 | 80 | 1008.7 |
| 20260903034206 | 47 | 90 | 0.0 | 0.0 | 0.00 | 0.00 | 0.00 | 80 | 1008.7 |
| 20260903033606 | 47 | 90 | 0.0 | 0.0 | 0.00 | 0.00 | 0.00 | 80 | 1008.7 |
| 20260903033306 | 47 | 90 | 0.0 | 0.0 | 0.00 | 0.00 | 0.00 | 80 | 1008.7 |
| 20260903033005 | 47 | 337 | 0.0 | 0.0 | 0.00 | 0.00 | 0.00 | 80 | 1008.7 |
| 20260903032706 | 48 | 337 | 0.0 | 0.0 | 0.00 | 0.00 | 0.00 | 80 | 1008.7 |
| 20260903032405 | 48 | 337 | 0.0 | 0.0 | 0.00 | 0.00 | 0.00 | 80 | 1008.7 |
| 20260903032106 | 48 | 90 | 0.0 | 0.0 | 0.00 | 0.00 | 0.00 | 80 | 1008.7 |
| 20260903031805 | 48 | 90 | 0.0 | 0.0 | 0.00 | 0.00 | 0.00 | 80 | 1008.9 |
| 20260903031505 | 48 | 90 | 0.0 | 0.0 | 0.00 | 0.00 | 0.00 | 80 | 1008.7 |
| 20260903031205 | 48 | 90 | 0.0 | 0.0 | 0.00 | 0.00 | 0.00 | 80 | 1008.7 |
| 20260903030905 | 48 | 90 | 0.0 | 0.0 | 0.00 | 0.00 | 0.00 | 80 | 1008.7 |
| 20260903030305 | 49 | 90 | 0.0 | 0.0 | 0.00 | 0.00 | 0.00 | 80 | 1008.7 |
| 20260903030005 | 49 | 90 | 0.0 | 0.0 | 0.00 | 0.00 | 0.00 | 80 | 1008.7 |
| 20260903025705 | 49 | 90 | 0.0 | 0.0 | 0.00 | 0.00 | 0.00 | 81 | 1008.7 |
| 20260903025406 | 49 | 90 | 0.0 | 0.0 | 0.00 | 0.00 | 0.00 | 81 | 1008.5 |
| 20260903025107 | 49 | 337 | 0.0 | 0.0 | 0.00 | 0.00 | 0.00 | 81 | 1008.5 |
| 20260903024505 | 49 | 90 | 0.0 | 0.0 | 0.00 | 0.00 | 0.00 | 81 | 1008.5 |
| 20260903024205 | 49 | 90 | 0.0 | 0.0 | 0.00 | 0.00 | 0.00 | 81 | 1008.5 |
| 20260903023906 | 49 | 90 | 0.0 | 0.0 | 0.00 | 0.00 | 0.00 | 81 | 1008.5 |
| 20260903023606 | 49 | 90 | 0.0 | 0.0 | 0.00 | 0.00 | 0.00 | 81 | 1008.7 |
| 20260903023306 | 49 | 90 | 0.0 | 0.0 | 0.00 | 0.00 | 0.00 | 81 | 1008.7 |
| 20260903023006 | 49 | 90 | 0.0 | 0.0 | 0.00 | 0.00 | 0.00 | 81 | 1008.7 |
| 20260903022705 | 49 | 90 | 0.0 | 0.0 | 0.00 | 0.00 | 0.00 | 80 | 1008.7 |
| 20260903022406 | 49 | 90 | 0.0 | 0.0 | 0.00 | 0.00 | 0.00 | 80 | 1008.7 |
| 20260903022105 | 49 | 90 | 0.0 | 0.0 | 0.00 | 0.00 | 0.00 | 80 | 1008.7 |
| 20260903021806 | 49 | 90 | 0.0 | 0.0 | 0.00 | 0.00 | 0.00 | 80 | 1008.7 |
| 20260903021206 | 49 | 90 | 0.0 | 0.0 | 0.00 | 0.00 | 0.00 | 79 | 1008.7 |
| 20260903020906 | 49 | 90 | 0.0 | 0.0 | 0.00 | 0.00 | 0.00 | 79 | 1008.7 |
| 20260903020606 | 48 | 90 | 0.0 | 0.0 | 0.00 | 0.00 | 0.00 | 79 | 1008.7 |
| 20260903020306 | 49 | 90 | 0.0 | 0.0 | 0.00 | 0.00 | 0.00 | 79 | 1008.7 |
| 20260903020005 | 48 | 90 | 0.0 | 0.0 | 0.00 | 0.00 | 0.00 | 78 | 1008.7 |
| 20260903015405 | 49 | 90 | 0.0 | 0.0 | 0.00 | 0.00 | 0.00 | 79 | 1008.7 |
| 20260903015106 | 49 | 90 | 0.0 | 0.0 | 0.00 | 0.00 | 0.00 | 79 | 1008.7 |
| 20260903014806 | 49 | 90 | 0.0 | 0.0 | 0.00 | 0.00 | 0.00 | 78 | 1008.7 |
| 20260903014505 | 49 | 90 | 0.0 | 0.0 | 0.00 | 0.00 | 0.00 | 78 | 1008.7 |
| 20260903014205 | 49 | 90 | 0.0 | 0.0 | 0.00 | 0.00 | 0.00 | 79 | 1008.7 |
| 20260903013906 | 49 | 90 | 0.0 | 0.0 | 0.00 | 0.00 | 0.00 | 79 | 1008.7 |
| 20260903013606 | 49 | 90 | 0.0 | 0.0 | 0.00 | 0.00 | 0.00 | 79 | 1008.7 |
| 20260903013305 | 49 | 90 | 0.0 | 0.0 | 0.00 | 0.00 | 0.00 | 79 | 1008.7 |
| 20260903013005 | 50 | 90 | 0.0 | 0.0 | 0.00 | 0.00 | 0.00 | 79 | 1008.7 |
| 20260903012706 | 49 | 90 | 0.0 | 0.0 | 0.00 | 0.00 | 0.00 | 79 | 1008.7 |
| 20260903012105 | 50 | 90 | 0.0 | 0.0 | 0.00 | 0.00 | 0.00 | 79 | 1008.7 |
| 20260903011805 | 50 | 90 | 0.0 | 0.0 | 0.00 | 0.00 | 0.00 | 79 | 1008.7 |
| 20260903011505 | 50 | 90 | 0.0 | 0.0 | 0.00 | 0.00 | 0.00 | 79 | 1008.7 |
| 20260903011206 | 50 | 90 | 0.0 | 0.0 | 0.00 | 0.00 | 0.00 | 79 | 1008.7 |
| 20260903010905 | 50 | 337 | 0.0 | 0.0 | 0.00 | 0.00 | 0.00 | 79 | 1008.7 |
| 20260903010306 | 50 | 90 | 0.0 | 0.0 | 0.00 | 0.00 | 0.00 | 79 | 1008.7 |
| 20260903010005 | 50 | 90 | 0.0 | 0.0 | 0.00 | 0.00 | 0.00 | 79 | 1008.7 |
| 20260903005706 | 50 | 90 | 1.0 | 1.0 | 0.00 | 0.00 | 0.00 | 79 | 1008.7 |
| 20260903005106 | 51 | 90 | 0.0 | 0.0 | 0.00 | 0.00 | 0.00 | 79 | 1008.7 |
| 20260903004807 | 51 | 90 | 0.0 | 0.0 | 0.00 | 0.00 | 0.00 | 79 | 1008.7 |
| 20260903004506 | 51 | 90 | 0.0 | 0.0 | 0.00 | 0.00 | 0.00 | 79 | 1008.7 |
| 20260903004205 | 52 | 90 | 0.0 | 0.0 | 0.00 | 0.00 | 0.00 | 79 | 1008.7 |
| 20260903003906 | 52 | 90 | 0.0 | 0.0 | 0.00 | 0.00 | 0.00 | 80 | 1008.7 |
| 20260903003306 | 52 | 90 | 0.0 | 0.0 | 0.00 | 0.00 | 0.00 | 79 | 1008.7 |
| 20260903003006 | 52 | 90 | 0.0 | 0.0 | 0.00 | 0.00 | 0.00 | 79 | 1008.7 |
| 20260903002706 | 52 | 90 | 0.0 | 0.0 | 0.00 | 0.00 | 0.00 | 79 | 1008.7 |
| 20260903002406 | 52 | 90 | 0.0 | 0.0 | 0.00 | 0.00 | 0.00 | 80 | 1008.7 |
| 20260903002106 | 52 | 90 | 0.0 | 0.0 | 0.00 | 0.00 | 0.00 | 79 | 1008.5 |
| 20260903001806 | 52 | 90 | 0.0 | 0.0 | 0.00 | 0.00 | 0.00 | 80 | 1008.7 |
| 20260903001506 | 52 | 90 | 0.0 | 0.0 | 0.00 | 0.00 | 0.00 | 80 | 1008.7 |
| 20260903001206 | 52 | 67 | 0.0 | 0.0 | 0.00 | 0.00 | 0.00 | 79 | 1008.7 |
| 20260903000906 | 52 | 337 | 0.0 | 0.0 | 0.00 | 0.00 | 0.00 | 79 | 1008.7 |
| 20260903000605 | 52 | 45 | 0.0 | 0.0 | 0.00 | 0.00 | 0.00 | 79 | 1008.7 |
| 20260903000006 | 52 | 45 | 0.0 | 0.0 | 0.00 | 0.00 | 0.00 | 79 | 1008.7 |
| 20260902235706 | 52 | 45 | 0.0 | 0.0 | 0.00 | 0.00 | 0.00 | 79 | 1008.7 |
| 20260902235406 | 52 | 45 | 0.0 | 0.0 | 0.00 | 0.00 | 0.00 | 79 | 1008.7 |
| 20260902235105 | 52 | 45 | 0.0 | 0.0 | 0.00 | 0.00 | 0.00 | 79 | 1008.7 |
| 20260902234809 | 52 | 45 | 0.0 | 0.0 | 0.00 | 0.00 | 0.00 | 79 | 1008.7 |
| 20260902234506 | 53 | 45 | 0.0 | 0.0 | 0.00 | 0.00 | 0.00 | 79 | 1008.7 |
| 20260902234205 | 53 | 45 | 0.0 | 0.0 | 0.00 | 0.00 | 0.00 | 79 | 1008.7 |
| 20260902233906 | 53 | 45 | 0.0 | 0.0 | 0.00 | 0.00 | 0.00 | 79 | 1008.7 |
| 20260902233606 | 53 | 337 | 0.0 | 0.0 | 0.00 | 0.00 | 0.00 | 79 | 1008.7 |
| 20260902233306 | 53 | 45 | 0.0 | 0.0 | 0.00 | 0.00 | 0.00 | 79 | 1008.7 |
| 20260902233006 | 53 | 45 | 0.0 | 0.0 | 0.00 | 0.00 | 0.00 | 78 | 1008.7 |
| 20260902232706 | 53 | 45 | 0.0 | 0.0 | 0.00 | 0.00 | 0.00 | 78 | 1008.7 |
| 20260902232405 | 53 | 45 | 0.0 | 0.0 | 0.00 | 0.00 | 0.00 | 79 | 1008.7 |
| 20260902232105 | 53 | 45 | 0.0 | 0.0 | 0.00 | 0.00 | 0.00 | 78 | 1008.7 |
| 20260902231806 | 53 | 337 | 0.0 | 0.0 | 0.00 | 0.00 | 0.00 | 79 | 1008.7 |
| 20260902231508 | 53 | 45 | 0.0 | 0.0 | 0.00 | 0.00 | 0.00 | 78 | 1008.7 |
| 20260902231206 | 53 | 45 | 0.0 | 0.0 | 0.00 | 0.00 | 0.00 | 79 | 1008.7 |
| 20260902230905 | 53 | 45 | 0.0 | 0.0 | 0.00 | 0.00 | 0.00 | 78 | 1008.7 |
| 20260902230606 | 53 | 45 | 0.0 | 0.0 | 0.00 | 0.00 | 0.00 | 79 | 1008.7 |
| 20260902230305 | 53 | 45 | 0.0 | 0.0 | 0.00 | 0.00 | 0.00 | 78 | 1008.7 |
| 20260902230005 | 53 | 45 | 0.0 | 0.0 | 0.00 | 0.00 | 0.00 | 78 | 1008.7 |
| 20260902225706 | 53 | 45 | 0.0 | 0.0 | 0.00 | 0.00 | 0.00 | 78 | 1008.7 |
| 20260902225405 | 53 | 45 | 0.0 | 0.0 | 0.00 | 0.00 | 0.00 | 78 | 1008.7 |
| 20260902225106 | 53 | 337 | 0.0 | 0.0 | 0.00 | 0.00 | 0.00 | 78 | 1008.7 |
| 20260902224805 | 53 | 90 | 0.0 | 0.0 | 0.00 | 0.00 | 0.00 | 77 | 1008.7 |
| 20260902224205 | 53 | 337 | 0.0 | 0.0 | 0.00 | 0.00 | 0.00 | 77 | 1008.7 |
| 20260902223906 | 53 | 90 | 0.0 | 0.0 | 0.00 | 0.00 | 0.00 | 78 | 1008.7 |
| 20260902223605 | 53 | 337 | 0.0 | 0.0 | 0.00 | 0.00 | 0.00 | 77 | 1008.7 |
| 20260902223306 | 53 | 45 | 0.0 | 0.0 | 0.00 | 0.00 | 0.00 | 77 | 1008.7 |
| 20260902223006 | 53 | 45 | 0.0 | 0.0 | 0.00 | 0.00 | 0.00 | 76 | 1008.7 |
| 20260902222405 | 53 | 337 | 0.0 | 0.0 | 0.00 | 0.00 | 0.00 | 76 | 1008.7 |
| 20260902222106 | 53 | 45 | 0.0 | 0.0 | 0.00 | 0.00 | 0.00 | 76 | 1008.7 |
| 20260902221805 | 53 | 45 | 0.0 | 0.0 | 0.00 | 0.00 | 0.00 | 76 | 1008.7 |
| 20260902221506 | 53 | 45 | 0.0 | 0.0 | 0.00 | 0.00 | 0.00 | 76 | 1008.7 |
| 20260902221206 | 53 | 45 | 0.0 | 0.0 | 0.00 | 0.00 | 0.00 | 76 | 1008.5 |
| 20260902220605 | 53 | 337 | 0.0 | 0.0 | 0.00 | 0.00 | 0.00 | 76 | 1008.7 |
| 20260902220306 | 53 | 45 | 0.0 | 0.0 | 0.00 | 0.00 | 0.00 | 76 | 1008.5 |
| 20260902220006 | 53 | 45 | 0.0 | 0.0 | 0.00 | 0.00 | 0.00 | 75 | 1008.7 |
| 20260902215706 | 53 | 45 | 0.0 | 0.0 | 0.00 | 0.00 | 0.00 | 75 | 1008.5 |
| 20260902215406 | 53 | 45 | 0.0 | 0.0 | 0.00 | 0.00 | 0.00 | 75 | 1008.5 |
| 20260902215106 | 53 | 90 | 0.0 | 0.0 | 0.00 | 0.00 | 0.00 | 75 | 1008.5 |
| 20260902214805 | 53 | 90 | 0.0 | 0.0 | 0.00 | 0.00 | 0.00 | 75 | 1008.5 |
| 20260902214506 | 53 | 90 | 0.0 | 0.0 | 0.00 | 0.00 | 0.00 | 75 | 1008.7 |
| 20260902214206 | 53 | 90 | 0.0 | 0.0 | 0.00 | 0.00 | 0.00 | 75 | 1008.7 |
| 20260902213906 | 53 | 90 | 0.0 | 0.0 | 0.00 | 0.00 | 0.00 | 75 | 1008.7 |
| 20260902213609 | 53 | 90 | 0.0 | 0.0 | 0.00 | 0.00 | 0.00 | 75 | 1008.7 |
| 20260902213306 | 53 | 90 | 0.0 | 0.0 | 0.00 | 0.00 | 0.00 | 75 | 1008.7 |
| 20260902213005 | 53 | 90 | 0.0 | 0.0 | 0.00 | 0.00 | 0.00 | 74 | 1008.7 |
| 20260902212705 | 53 | 90 | 0.0 | 0.0 | 0.00 | 0.00 | 0.00 | 75 | 1008.7 |
| 20260902212406 | 53 | 337 | 0.0 | 0.0 | 0.00 | 0.00 | 0.00 | 74 | 1008.7 |
| 20260902212106 | 53 | 90 | 0.0 | 0.0 | 0.00 | 0.00 | 0.00 | 74 | 1008.7 |
| 20260902211505 | 54 | 337 | 0.0 | 0.0 | 0.00 | 0.00 | 0.00 | 75 | 1008.7 |
| 20260902211206 | 54 | 90 | 0.0 | 0.0 | 0.00 | 0.00 | 0.00 | 75 | 1008.7 |
| 20260902210905 | 54 | 90 | 0.0 | 0.0 | 0.00 | 0.00 | 0.00 | 75 | 1008.7 |
| 20260902210605 | 54 | 90 | 0.0 | 0.0 | 0.00 | 0.00 | 0.00 | 75 | 1008.7 |
| 20260902210306 | 54 | 45 | 0.0 | 0.0 | 0.00 | 0.00 | 0.00 | 74 | 1008.5 |
| 20260902205705 | 54 | 22 | 0.0 | 0.0 | 0.00 | 0.00 | 0.00 | 74 | 1008.7 |
| 20260902205406 | 54 | 22 | 0.0 | 0.0 | 0.00 | 0.00 | 0.00 | 74 | 1008.5 |
| 20260902205106 | 54 | 337 | 0.0 | 0.0 | 0.00 | 0.00 | 0.00 | 73 | 1008.5 |
| 20260902204805 | 54 | 22 | 0.0 | 0.0 | 0.00 | 0.00 | 0.00 | 73 | 1008.5 |
| 20260902204205 | 55 | 337 | 0.0 | 0.0 | 0.00 | 0.00 | 0.00 | 74 | 1008.5 |
| 20260902203906 | 55 | 135 | 0.0 | 0.0 | 0.00 | 0.00 | 0.00 | 74 | 1008.5 |
| 20260902203606 | 54 | 135 | 0.0 | 0.0 | 0.00 | 0.00 | 0.00 | 74 | 1008.7 |
| 20260902203305 | 55 | 90 | 0.0 | 0.0 | 0.00 | 0.00 | 0.00 | 74 | 1008.5 |
| 20260902203007 | 54 | 90 | 0.0 | 0.0 | 0.00 | 0.00 | 0.00 | 74 | 1008.5 |
| 20260902202406 | 54 | 45 | 0.0 | 0.0 | 0.00 | 0.00 | 0.00 | 72 | 1008.5 |
| 20260902202105 | 54 | 45 | 0.0 | 0.0 | 0.00 | 0.00 | 0.00 | 72 | 1008.5 |
| 20260902201806 | 55 | 45 | 0.0 | 0.0 | 0.00 | 0.00 | 0.00 | 72 | 1008.5 |
| 20260902201506 | 55 | 45 | 0.0 | 0.0 | 0.00 | 0.00 | 0.00 | 72 | 1008.5 |
| 20260902201205 | 55 | 337 | 0.0 | 0.0 | 0.00 | 0.00 | 0.00 | 72 | 1008.5 |
| 20260902200905 | 55 | 67 | 1.0 | 1.0 | 0.00 | 0.00 | 0.00 | 72 | 1008.5 |
| 20260902200606 | 55 | 67 | 0.0 | 0.0 | 0.00 | 0.00 | 0.00 | 72 | 1008.2 |
| 20260902200306 | 55 | 67 | 0.0 | 0.0 | 0.00 | 0.00 | 0.00 | 72 | 1008.2 |
| 20260902195706 | 55 | 45 | 0.0 | 0.0 | 0.00 | 0.00 | 0.00 | 71 | 1008.2 |
| 20260902195406 | 55 | 45 | 0.0 | 0.0 | 0.00 | 0.00 | 0.00 | 71 | 1008.2 |
| 20260902195106 | 56 | 45 | 0.0 | 0.0 | 0.00 | 0.00 | 0.00 | 70 | 1008.2 |
| 20260902194806 | 56 | 45 | 0.0 | 0.0 | 0.00 | 0.00 | 0.00 | 70 | 1008.2 |
| 20260902194508 | 56 | 45 | 0.0 | 0.0 | 0.00 | 0.00 | 0.00 | 69 | 1008.2 |
| 20260902194205 | 56 | 45 | 0.0 | 0.0 | 0.00 | 0.00 | 0.00 | 70 | 1008.2 |
| 20260902193906 | 56 | 45 | 0.0 | 0.0 | 0.00 | 0.00 | 0.00 | 69 | 1008.2 |
| 20260902193607 | 56 | 337 | 0.0 | 0.0 | 0.00 | 0.00 | 0.00 | 69 | 1008.2 |
| 20260902193305 | 56 | 45 | 0.0 | 0.0 | 0.00 | 0.00 | 0.00 | 69 | 1008.2 |
| 20260902193005 | 56 | 45 | 0.0 | 0.0 | 0.00 | 0.00 | 0.00 | 68 | 1008.2 |
| 20260902192709 | 57 | 337 | 0.0 | 0.0 | 0.00 | 0.00 | 0.00 | 68 | 1008.2 |
| 20260902192406 | 57 | 67 | 0.0 | 0.0 | 0.00 | 0.00 | 0.00 | 68 | 1008.2 |
| 20260902192106 | 57 | 67 | 0.0 | 0.0 | 0.00 | 0.00 | 0.00 | 68 | 1008.2 |
| 20260902191806 | 57 | 67 | 0.0 | 0.0 | 0.00 | 0.00 | 0.00 | 68 | 1008.2 |
| 20260902191506 | 57 | 67 | 0.0 | 0.0 | 0.00 | 0.00 | 0.00 | 67 | 1008.2 |
| 20260902191206 | 57 | 67 | 0.0 | 0.0 | 0.00 | 0.00 | 0.00 | 67 | 1008.0 |
| 20260902190908 | 58 | 67 | 0.0 | 0.0 | 0.00 | 0.00 | 0.00 | 67 | 1008.2 |
| 20260902190606 | 58 | 67 | 0.0 | 0.0 | 0.00 | 0.00 | 0.00 | 67 | 1008.2 |
| 20260902190306 | 58 | 337 | 0.0 | 0.0 | 0.00 | 0.00 | 0.00 | 67 | 1008.2 |
| 20260902190006 | 58 | 45 | 0.0 | 0.0 | 0.00 | 0.00 | 0.00 | 67 | 1008.0 |
| 20260902185706 | 59 | 45 | 0.0 | 0.0 | 0.00 | 0.00 | 0.00 | 66 | 1008.0 |
| 20260902185409 | 59 | 45 | 0.0 | 0.0 | 0.00 | 0.00 | 0.00 | 66 | 1008.0 |
| 20260902185106 | 59 | 45 | 0.0 | 0.0 | 0.00 | 0.00 | 0.00 | 66 | 1008.0 |
| 20260902184806 | 60 | 45 | 0.0 | 0.0 | 0.00 | 0.00 | 0.00 | 66 | 1007.7 |
| 20260902184505 | 60 | 45 | 0.0 | 0.0 | 0.00 | 0.00 | 0.00 | 65 | 1007.7 |
| 20260902184205 | 60 | 45 | 0.0 | 0.0 | 0.00 | 0.00 | 0.00 | 65 | 1007.7 |
| 20260902183906 | 60 | 45 | 0.0 | 0.0 | 0.00 | 0.00 | 0.00 | 64 | 1008.0 |
| 20260902183306 | 61 | 45 | 0.0 | 0.0 | 0.00 | 0.00 | 0.00 | 64 | 1007.7 |
| 20260902183006 | 61 | 337 | 0.0 | 0.0 | 0.00 | 0.00 | 0.00 | 64 | 1007.7 |
| 20260902182705 | 62 | 22 | 0.0 | 0.0 | 0.00 | 0.00 | 0.00 | 63 | 1007.7 |
| 20260902182406 | 61 | 337 | 0.0 | 0.0 | 0.00 | 0.00 | 0.00 | 63 | 1007.7 |
| 20260902182105 | 62 | 315 | 0.0 | 0.0 | 0.00 | 0.00 | 0.00 | 63 | 1007.7 |
| 20260902181505 | 63 | 315 | 0.0 | 0.0 | 0.00 | 0.00 | 0.00 | 61 | 1007.5 |
| 20260902181205 | 63 | 0 | 0.0 | 0.0 | 0.00 | 0.00 | 0.00 | 61 | 1007.2 |
| 20260902180905 | 63 | 0 | 0.0 | 0.0 | 0.00 | 0.00 | 0.00 | 61 | 1007.5 |
| 20260902180606 | 63 | 337 | 1.0 | 1.0 | 0.00 | 0.00 | 0.00 | 60 | 1007.2 |
| 20260902180305 | 63 | 0 | 2.0 | 2.0 | 0.00 | 0.00 | 0.00 | 60 | 1007.2 |
| 20260902180007 | 64 | 315 | 0.0 | 0.0 | 0.00 | 0.00 | 0.00 | 59 | 1007.2 |
| 20260902175706 | 66 | 315 | 1.0 | 1.0 | 0.00 | 0.00 | 0.00 | 58 | 1007.2 |
| 20260902175406 | 66 | 315 | 1.0 | 1.0 | 0.00 | 0.00 | 0.00 | 57 | 1007.2 |
| 20260902175106 | 66 | 315 | 0.0 | 0.0 | 0.00 | 0.00 | 0.00 | 57 | 1007.2 |
| 20260902174806 | 67 | 270 | 1.0 | 1.0 | 0.00 | 0.00 | 0.00 | 57 | 1007.2 |
| 20260902174508 | 67 | 337 | 1.0 | 1.0 | 0.00 | 0.00 | 0.00 | 56 | 1007.2 |
| 20260902174206 | 67 | 315 | 1.0 | 1.0 | 0.00 | 0.00 | 0.00 | 56 | 1007.2 |
| 20260902173906 | 68 | 292 | 1.0 | 1.0 | 0.00 | 0.00 | 0.00 | 56 | 1007.2 |
| 20260902173606 | 68 | 292 | 1.0 | 1.0 | 0.00 | 0.00 | 0.00 | 56 | 1007.2 |
| 20260902173305 | 68 | 315 | 0.0 | 0.0 | 0.00 | 0.00 | 0.00 | 56 | 1007.2 |
| 20260902173005 | 68 | 270 | 4.0 | 4.0 | 0.00 | 0.00 | 0.00 | 55 | 1007.2 |
| 20260902172708 | 68 | 292 | 2.0 | 2.0 | 0.00 | 0.00 | 0.00 | 56 | 1007.2 |
| 20260902172406 | 69 | 292 | 1.0 | 2.0 | 0.00 | 0.00 | 0.00 | 56 | 1007.2 |
| 20260902172106 | 69 | 270 | 2.0 | 2.0 | 0.00 | 0.00 | 0.00 | 56 | 1007.2 |
| 20260902171806 | 69 | 270 | 1.0 | 1.0 | 0.00 | 0.00 | 0.00 | 55 | 1007.2 |
| 20260902171506 | 69 | 270 | 2.0 | 2.0 | 0.00 | 0.00 | 0.00 | 55 | 1007.2 |
| 20260902171205 | 69 | 270 | 2.0 | 2.0 | 0.00 | 0.00 | 0.00 | 55 | 1007.2 |
| 20260902170909 | 69 | 337 | 3.0 | 3.0 | 0.00 | 0.00 | 0.00 | 54 | 1007.2 |
| 20260902170606 | 70 | 337 | 4.0 | 4.0 | 0.00 | 0.00 | 0.00 | 54 | 1007.2 |
| 20260902170305 | 70 | 270 | 4.0 | 4.0 | 0.00 | 0.00 | 0.00 | 54 | 1007.2 |
| 20260902170007 | 70 | 225 | 2.0 | 2.0 | 0.00 | 0.00 | 0.00 | 54 | 1007.2 |
| 20260902165705 | 70 | 225 | 2.0 | 2.0 | 0.00 | 0.00 | 0.00 | 54 | 1007.2 |
| 20260902165406 | 70 | 337 | 2.0 | 2.0 | 0.00 | 0.00 | 0.00 | 54 | 1007.2 |
| 20260902164805 | 71 | 270 | 3.0 | 3.0 | 0.00 | 0.00 | 0.00 | 53 | 1007.2 |
| 20260902164506 | 71 | 270 | 2.0 | 2.0 | 0.00 | 0.00 | 0.00 | 53 | 1007.2 |
| 20260902164205 | 71 | 270 | 1.0 | 1.0 | 0.00 | 0.00 | 0.00 | 53 | 1007.2 |
| 20260902163906 | 71 | 270 | 5.0 | 5.0 | 0.00 | 0.00 | 0.00 | 53 | 1007.2 |
| 20260902163609 | 71 | 337 | 1.0 | 1.0 | 0.00 | 0.00 | 0.00 | 53 | 1007.2 |
| 20260902163305 | 71 | 270 | 1.0 | 1.0 | 0.00 | 0.00 | 0.00 | 53 | 1007.2 |
| 20260902163005 | 71 | 292 | 3.0 | 3.0 | 0.00 | 0.00 | 0.00 | 52 | 1007.2 |
| 20260902162706 | 71 | 270 | 7.0 | 7.0 | 0.00 | 0.00 | 0.00 | 52 | 1007.2 |
| 20260902162406 | 71 | 270 | 6.0 | 6.0 | 0.00 | 0.00 | 0.00 | 51 | 1007.2 |
| 20260902162106 | 72 | 270 | 5.0 | 5.0 | 0.00 | 0.00 | 0.00 | 52 | 1007.2 |
| 20260902161809 | 72 | 337 | 8.0 | 8.0 | 0.00 | 0.00 | 0.00 | 51 | 1007.2 |
| 20260902161505 | 72 | 270 | 7.0 | 7.0 | 0.00 | 0.00 | 0.00 | 50 | 1007.2 |
| 20260902161206 | 72 | 270 | 5.0 | 5.0 | 0.00 | 0.00 | 0.00 | 51 | 1007.2 |
| 20260902160906 | 72 | 270 | 3.0 | 3.0 | 0.00 | 0.00 | 0.00 | 50 | 1007.2 |
| 20260902160609 | 72 | 247 | 4.0 | 4.0 | 0.00 | 0.00 | 0.00 | 50 | 1007.2 |
| 20260902160306 | 72 | 270 | 4.0 | 4.0 | 0.00 | 0.00 | 0.00 | 52 | 1007.2 |
| 20260902160007 | 73 | 270 | 6.0 | 6.0 | 0.00 | 0.00 | 0.00 | 52 | 1007.0 |
| 20260902155705 | 73 | 270 | 5.0 | 5.0 | 0.00 | 0.00 | 0.00 | 51 | 1007.2 |
| 20260902155405 | 72 | 270 | 7.0 | 7.0 | 0.00 | 0.00 | 0.00 | 50 | 1007.2 |
| 20260902155109 | 73 | 270 | 6.0 | 6.0 | 0.00 | 0.00 | 0.00 | 51 | 1007.2 |
| 20260902154805 | 74 | 270 | 7.0 | 7.0 | 0.00 | 0.00 | 0.00 | 52 | 1007.2 |
| 20260902154505 | 74 | 270 | 4.0 | 4.0 | 0.00 | 0.00 | 0.00 | 51 | 1007.2 |
| 20260902154206 | 75 | 315 | 3.0 | 4.0 | 0.00 | 0.00 | 0.00 | 50 | 1007.2 |
| 20260902153906 | 75 | 292 | 5.0 | 5.0 | 0.00 | 0.00 | 0.00 | 51 | 1007.0 |
| 20260902153305 | 77 | 270 | 5.0 | 5.0 | 0.00 | 0.00 | 0.00 | 51 | 1007.2 |
| 20260902153005 | 76 | 337 | 3.0 | 3.0 | 0.00 | 0.00 | 0.00 | 52 | 1007.2 |
| 20260902152705 | 75 | 337 | 4.0 | 4.0 | 0.00 | 0.00 | 0.00 | 52 | 1007.2 |